Tracking 31027 objects as of 19-Jul-2025
HD Live streaming from Space Station
objects crossing your sky now

MAQSAT H

Track MAQSAT H now!
10-day predictions
MAQSAT H is classified as:


NORAD ID: 25023
Int'l Code: 1997-066A
Perigee: 579.9 km
Apogee: 26,346.6 km
Inclination: 7.6 °
Period: 463.3 minutes
Semi major axis: 19834 km
RCS: 21.0323 m2 (large)
Launch date: October 30, 1997
Source: European Space Agency (ESA)
Launch site: FRENCH GUIANA (FRGUI)
Your satellite tracking list
Your tracking list is empty




NASA's NSSDC Master Catalog

Two Line Element Set (TLE):
1 25023U 97066A   25199.16143372 -.00000020  00000-0  37079-3 0  9995
2 25023   7.6193 161.8947 6495523 153.7285 249.7672  3.10799860313503
Source of the keplerian elements: AFSPC